Time,TemperatureF,DewpointF,PressureIn,WindDirection,WindDirectionDegrees,WindSpeedMPH,WindSpeedGustMPH,Humidity,HourlyPrecipIn,Conditions,Clouds,dailyrainin,SoftwareType,DateUTC
2013-07-08 00:00:00,76.0,69.4,29.84,NW,315,5.0,8.0,80,0.00,,,0.00,Weather View 32 v70,2013-07-08 04:00:00,
2013-07-08 00:36:00,74.0,63.1,29.85,NNW,337,3.0,7.0,69,0.00,,,0.00,Weather View 32 v70,2013-07-08 04:36:00,
2013-07-08 01:05:00,73.0,59.2,29.86,NNW,337,3.0,6.0,62,0.00,,,0.00,Weather View 32 v70,2013-07-08 05:05:00,
2013-07-08 01:30:00,72.0,53.4,29.86,NNW,337,4.0,6.0,52,0.00,,,0.00,Weather View 32 v70,2013-07-08 05:30:00,
2013-07-08 02:01:00,72.0,47.6,29.84,NNW,337,5.0,6.0,42,0.00,,,0.00,Weather View 32 v70,2013-07-08 06:01:00,
2013-07-08 02:06:00,72.0,47.6,29.84,NNW,337,5.0,6.0,42,0.00,,,0.00,Weather View 32 v70,2013-07-08 06:06:00,
2013-07-08 02:35:00,71.0,44.7,29.84,NNW,337,6.0,6.0,39,0.00,,,0.00,Weather View 32 v70,2013-07-08 06:35:00,
2013-07-08 03:06:00,71.0,43.3,29.86,SSE,157,2.0,7.0,37,0.00,,,0.00,Weather View 32 v70,2013-07-08 07:06:00,
2013-07-08 03:30:00,71.0,37.1,29.86,North,360,3.0,7.0,29,0.00,,,0.00,Weather View 32 v70,2013-07-08 07:30:00,
2013-07-08 04:06:00,70.0,30.4,29.86,NNW,337,0.0,6.0,23,0.00,,,0.00,Weather View 32 v70,2013-07-08 08:06:00,
2013-07-08 04:34:00,71.0,30.1,29.87,NW,315,5.0,6.0,22,0.00,,,0.00,Weather View 32 v70,2013-07-08 08:34:00,
2013-07-08 05:00:00,70.0,3.0,29.88,NNW,337,3.0,8.0,7,0.00,,,0.00,Weather View 32 v70,2013-07-08 09:00:00,
2013-07-08 05:02:00,70.0,3.0,29.88,NNW,337,3.0,8.0,7,0.00,,,0.00,Weather View 32 v70,2013-07-08 09:02:00,
2013-07-08 05:34:00,70.0,-8.8,29.89,NNW,337,8.0,10.0,4,0.00,,,0.00,Weather View 32 v70,2013-07-08 09:34:00,
2013-07-08 06:00:00,68.0,49.1,29.92,NNW,337,8.0,15.0,51,0.00,,,0.00,Weather View 32 v70,2013-07-08 10:00:00,
2013-07-08 06:04:00,68.0,49.1,29.92,NNW,337,8.0,15.0,51,0.00,,,0.00,Weather View 32 v70,2013-07-08 10:04:00,
2013-07-08 06:32:00,66.0,60.0,29.92,North,360,6.0,16.0,81,0.00,,,0.00,Weather View 32 v70,2013-07-08 10:32:00,
2013-07-08 07:00:00,65.0,60.4,29.94,NNW,337,10.0,16.0,85,0.00,,,0.00,Weather View 32 v70,2013-07-08 11:00:00,
2013-07-08 07:01:00,65.0,60.4,29.94,NNW,337,10.0,16.0,85,0.00,,,0.00,Weather View 32 v70,2013-07-08 11:01:00,
2013-07-08 07:32:00,59.0,33.4,29.99,North,360,7.0,20.0,38,0.00,,,0.00,Weather View 32 v70,2013-07-08 11:32:00,
2013-07-08 08:00:00,59.0,8.1,29.97,North,360,9.0,20.0,13,0.00,,,0.00,Weather View 32 v70,2013-07-08 12:00:00,
2013-07-08 08:05:00,59.0,8.1,29.97,North,360,9.0,20.0,13,0.00,,,0.00,Weather View 32 v70,2013-07-08 12:05:00,
2013-07-08 08:31:00,60.0,12.1,29.98,NE,45,2.0,16.0,15,0.00,,,0.00,Weather View 32 v70,2013-07-08 12:31:00,
2013-07-08 09:00:00,61.0,22.9,29.98,NE,45,4.0,15.0,23,0.00,,,0.00,Weather View 32 v70,2013-07-08 13:00:00,
2013-07-08 09:03:00,61.0,22.9,29.98,NE,45,4.0,15.0,23,0.00,,,0.00,Weather View 32 v70,2013-07-08 13:03:00,
2013-07-08 09:30:00,62.0,29.3,29.98,NNE,22,3.0,7.0,29,0.00,,,0.00,Weather View 32 v70,2013-07-08 13:30:00,
2013-07-08 10:00:00,63.0,29.3,29.98,NNE,22,5.0,7.0,28,0.00,,,0.00,Weather View 32 v70,2013-07-08 14:00:00,
2013-07-08 10:04:00,63.0,29.3,29.98,NNE,22,5.0,7.0,28,0.00,,,0.00,Weather View 32 v70,2013-07-08 14:04:00,
2013-07-08 10:34:00,63.0,30.2,29.98,NW,315,3.0,9.0,29,0.00,,,0.00,Weather View 32 v70,2013-07-08 14:34:00,
2013-07-08 11:04:00,67.0,45.5,29.97,SSE,157,5.0,9.0,46,0.00,,,0.00,Weather View 32 v70,2013-07-08 15:04:00,
2013-07-08 11:32:00,66.0,42.8,29.97,SE,135,2.0,7.0,43,0.00,,,0.00,Weather View 32 v70,2013-07-08 15:32:00,
2013-07-08 12:03:00,68.0,44.6,29.96,SE,135,4.0,7.0,43,0.00,,,0.00,Weather View 32 v70,2013-07-08 16:03:00,
2013-07-08 12:34:00,68.0,46.4,29.97,SE,135,5.0,7.0,46,0.00,,,0.00,Weather View 32 v70,2013-07-08 16:34:00,
2013-07-08 13:05:00,68.0,48.1,29.98,ESE,112,4.0,7.0,49,0.00,,,0.00,Weather View 32 v70,2013-07-08 17:05:00,
2013-07-08 13:35:00,72.0,57.8,29.95,SE,135,3.0,8.0,61,0.00,,,0.00,Weather View 32 v70,2013-07-08 17:35:00,
2013-07-08 14:33:00,71.0,56.8,29.96,ESE,112,4.0,11.0,61,0.00,,,0.00,Weather View 32 v70,2013-07-08 18:33:00,
2013-07-08 15:30:00,72.0,57.3,29.95,SE,135,3.0,9.0,60,0.00,,,0.00,Weather View 32 v70,2013-07-08 19:30:00,
2013-07-08 15:34:00,72.0,57.3,29.95,SE,135,3.0,9.0,60,0.00,,,0.00,Weather View 32 v70,2013-07-08 19:34:00,
2013-07-08 16:03:00,74.0,64.0,29.95,SE,135,3.0,9.0,71,0.00,,,0.00,Weather View 32 v70,2013-07-08 20:03:00,
2013-07-08 16:30:00,72.0,58.7,29.95,ESE,112,3.0,9.0,63,0.00,,,0.00,Weather View 32 v70,2013-07-08 20:30:00,
2013-07-08 16:33:00,72.0,58.7,29.95,ESE,112,3.0,9.0,63,0.00,,,0.00,Weather View 32 v70,2013-07-08 20:33:00,
2013-07-08 17:03:00,73.0,59.6,29.94,SE,135,4.0,7.0,63,0.00,,,0.00,Weather View 32 v70,2013-07-08 21:03:00,
2013-07-08 17:30:00,76.0,66.7,29.94,SE,135,1.0,6.0,73,0.00,,,0.00,Weather View 32 v70,2013-07-08 21:30:00,
2013-07-08 18:02:00,74.0,65.5,29.95,SSE,157,1.0,6.0,75,0.00,,,0.00,Weather View 32 v70,2013-07-08 22:02:00,
2013-07-08 21:04:00,66.0,16.9,30.02,ESE,112,9.0,9.0,15,0.00,,,0.00,Weather View 32 v70,2013-07-09 01:04:00,
2013-07-08 22:32:00,63.0,-39.3,30.04,East,90,3.0,10.0,1,0.00,,,0.00,Weather View 32 v70,2013-07-09 02:32:00,
2013-07-08 23:00:00,63.0,-39.3,30.04,East,90,4.0,9.0,1,0.00,,,0.00,Weather View 32 v70,2013-07-09 03:00:00,
2013-07-08 23:03:00,63.0,-39.3,30.04,East,90,4.0,9.0,1,0.00,,,0.00,Weather View 32 v70,2013-07-09 03:03:00,
2013-07-08 23:32:00,63.0,-39.3,30.05,East,90,5.0,9.0,1,0.00,,,0.00,Weather View 32 v70,2013-07-09 03:32:00,